Time,TemperatureF,DewpointF,PressureIn,WindDirection,WindDirectionDegrees,WindSpeedMPH,WindSpeedGustMPH,Humidity,HourlyPrecipIn,Conditions,Clouds,dailyrainin,SoftwareType,DateUTC
2013-03-08 00:00:00,42.0,0.0,29.82,East,90,0.0,3.0,60,-99.99,,,-99.99,,2013-03-08 08:00:00,
2013-03-08 00:08:00,42.0,0.0,29.81,East,87,0.0,3.0,64,-99.99,,,-99.99,,2013-03-08 08:08:00,
2013-03-08 00:16:00,42.0,0.0,29.81,NE,34,0.0,6.0,61,-99.99,,,-99.99,,2013-03-08 08:16:00,
2013-03-08 00:24:00,41.0,0.0,29.81,North,361,2.0,5.0,62,-99.99,,,-99.99,,2013-03-08 08:24:00,
2013-03-08 00:32:00,41.0,0.0,29.81,NNW,328,6.0,6.0,61,-99.99,,,-99.99,,2013-03-08 08:32:00,
2013-03-08 00:40:00,41.0,0.0,29.81,North,349,5.0,5.0,61,-99.99,,,-99.99,,2013-03-08 08:40:00,
2013-03-08 00:48:00,42.0,0.0,29.80,North,355,6.0,6.0,61,-99.99,,,-99.99,,2013-03-08 08:48:00,
2013-03-08 00:56:00,42.0,0.0,29.80,North,361,3.0,5.0,60,-99.99,,,-99.99,,2013-03-08 08:56:00,
2013-03-08 01:04:00,42.0,0.0,29.80,North,5,0.0,0.0,61,-99.99,,,-99.99,,2013-03-08 09:04:00,
2013-03-08 01:12:00,41.0,0.0,29.79,North,361,2.0,3.0,61,-99.99,,,-99.99,,2013-03-08 09:12:00,
2013-03-08 01:20:00,41.0,0.0,29.79,North,361,3.0,5.0,62,-99.99,,,-99.99,,2013-03-08 09:20:00,
2013-03-08 01:28:00,41.0,0.0,29.78,North,361,2.0,3.0,62,-99.99,,,-99.99,,2013-03-08 09:28:00,
2013-03-08 01:36:00,41.0,0.0,29.78,North,361,5.0,5.0,61,-99.99,,,-99.99,,2013-03-08 09:36:00,
2013-03-08 01:44:00,42.0,0.0,29.78,North,11,0.0,0.0,60,-99.99,,,-99.99,,2013-03-08 09:44:00,
2013-03-08 01:52:00,42.0,0.0,29.78,NE,51,0.0,0.0,59,-99.99,,,-99.99,,2013-03-08 09:52:00,
2013-03-08 02:00:00,42.0,0.0,29.77,North,358,2.0,2.0,60,-99.99,,,-99.99,,2013-03-08 10:00:00,
2013-03-08 02:08:00,43.0,0.0,29.77,NE,42,0.0,0.0,57,-99.99,,,-99.99,,2013-03-08 10:08:00,
2013-03-08 02:16:00,43.0,0.0,29.76,NE,50,0.0,0.0,57,-99.99,,,-99.99,,2013-03-08 10:16:00,
2013-03-08 02:24:00,43.0,0.0,29.76,NNE,15,0.0,0.0,57,-99.99,,,-99.99,,2013-03-08 10:24:00,
2013-03-08 02:32:00,43.0,0.0,29.76,SW,229,3.0,3.0,56,-99.99,,,-99.99,,2013-03-08 10:32:00,
2013-03-08 02:40:00,42.0,0.0,29.76,South,179,8.0,8.0,58,-99.99,,,-99.99,,2013-03-08 10:40:00,
2013-03-08 02:48:00,42.0,0.0,29.75,South,191,7.0,8.0,60,-99.99,,,-99.99,,2013-03-08 10:48:00,
2013-03-08 02:56:00,41.0,0.0,29.75,SSW,210,5.0,6.0,60,-99.99,,,-99.99,,2013-03-08 10:56:00,
2013-03-08 03:04:00,41.0,0.0,29.74,SSW,209,5.0,6.0,61,-99.99,,,-99.99,,2013-03-08 11:04:00,
2013-03-08 03:12:00,41.0,0.0,29.75,South,186,5.0,5.0,62,-99.99,,,-99.99,,2013-03-08 11:12:00,
2013-03-08 03:20:00,41.0,0.0,29.74,SSW,208,2.0,2.0,62,-99.99,,,-99.99,,2013-03-08 11:20:00,
2013-03-08 03:28:00,41.0,0.0,29.74,SSW,208,0.0,0.0,63,-99.99,,,-99.99,,2013-03-08 11:28:00,
2013-03-08 03:36:00,42.0,0.0,29.74,SE,141,0.0,0.0,61,-99.99,,,-99.99,,2013-03-08 11:36:00,
2013-03-08 03:44:00,42.0,0.0,29.73,SE,139,0.0,0.0,60,-99.99,,,-99.99,,2013-03-08 11:44:00,
2013-03-08 03:52:00,43.0,0.0,29.73,SE,138,0.0,0.0,58,-99.99,,,-99.99,,2013-03-08 11:52:00,
2013-03-08 04:00:00,43.0,0.0,29.73,SE,145,2.0,3.0,58,-99.99,,,-99.99,,2013-03-08 12:00:00,
2013-03-08 04:08:00,43.0,0.0,29.73,SE,141,5.0,5.0,58,-99.99,,,-99.99,,2013-03-08 12:08:00,
2013-03-08 04:16:00,43.0,0.0,29.73,SSE,162,5.0,5.0,57,-99.99,,,-99.99,,2013-03-08 12:16:00,
2013-03-08 04:24:00,43.0,0.0,29.73,SSE,161,5.0,5.0,58,-99.99,,,-99.99,,2013-03-08 12:24:00,
2013-03-08 04:32:00,43.0,0.0,29.73,SSE,164,3.0,5.0,58,-99.99,,,-99.99,,2013-03-08 12:32:00,
2013-03-08 04:40:00,43.0,0.0,29.73,SSE,167,2.0,3.0,58,-99.99,,,-99.99,,2013-03-08 12:40:00,
2013-03-08 04:48:00,42.0,0.0,29.73,North,361,2.0,2.0,58,-99.99,,,-99.99,,2013-03-08 12:48:00,
2013-03-08 04:56:00,40.0,0.0,29.73,NNW,337,6.0,6.0,60,-99.99,,,-99.99,,2013-03-08 12:56:00,
2013-03-08 05:04:00,40.0,0.0,29.73,NW,312,7.0,7.0,62,-99.99,,,-99.99,,2013-03-08 13:04:00,
2013-03-08 05:12:00,40.0,0.0,29.73,NW,312,5.0,7.0,62,-99.99,,,-99.99,,2013-03-08 13:12:00,
2013-03-08 05:20:00,41.0,0.0,29.73,WNW,298,3.0,3.0,61,-99.99,,,-99.99,,2013-03-08 13:20:00,
2013-03-08 05:28:00,42.0,0.0,29.73,WNW,291,3.0,3.0,62,-99.99,,,-99.99,,2013-03-08 13:28:00,
2013-03-08 05:36:00,42.0,0.0,29.73,WNW,282,3.0,3.0,60,-99.99,,,-99.99,,2013-03-08 13:36:00,
2013-03-08 05:44:00,42.0,0.0,29.72,WSW,256,3.0,5.0,59,-99.99,,,-99.99,,2013-03-08 13:44:00,
2013-03-08 05:52:00,42.0,0.0,29.72,WSW,242,6.0,6.0,63,-99.99,,,-99.99,,2013-03-08 13:52:00,
2013-03-08 06:00:00,42.0,0.0,29.72,SW,219,6.0,6.0,60,-99.99,,,-99.99,,2013-03-08 14:00:00,
2013-03-08 06:08:00,42.0,0.0,29.72,SSW,209,7.0,7.0,60,-99.99,,,-99.99,,2013-03-08 14:08:00,
2013-03-08 06:16:00,42.0,0.0,29.72,SSW,213,5.0,6.0,62,-99.99,,,-99.99,,2013-03-08 14:16:00,
2013-03-08 06:24:00,42.0,0.0,29.72,West,262,3.0,3.0,59,-99.99,,,-99.99,,2013-03-08 14:24:00,
2013-03-08 06:32:00,42.0,0.0,29.72,West,277,1.0,2.0,61,-99.99,,,-99.99,,2013-03-08 14:32:00,
2013-03-08 06:40:00,43.0,0.0,29.72,WNW,295,0.0,0.0,61,-99.99,,,-99.99,,2013-03-08 14:40:00,
2013-03-08 06:48:00,41.0,0.0,29.72,North,361,3.0,6.0,60,-99.99,,,-99.99,,2013-03-08 14:48:00,
2013-03-08 06:56:00,40.0,0.0,29.72,North,0,5.0,6.0,60,-99.99,,,-99.99,,2013-03-08 14:56:00,
2013-03-08 07:04:00,41.0,0.0,29.72,North,361,0.0,2.0,61,-99.99,,,-99.99,,2013-03-08 15:04:00,
2013-03-08 07:12:00,41.0,0.0,29.72,SE,130,2.0,2.0,60,-99.99,,,-99.99,,2013-03-08 15:12:00,
2013-03-08 07:20:00,42.0,0.0,29.72,SE,144,3.0,5.0,59,-99.99,,,-99.99,,2013-03-08 15:20:00,
2013-03-08 07:28:00,41.0,0.0,29.72,SSE,165,10.0,14.0,59,-99.99,,,-99.99,,2013-03-08 15:28:00,
2013-03-08 07:36:00,40.0,0.0,29.73,SSE,167,9.0,15.0,61,-99.99,,,-99.99,,2013-03-08 15:36:00,
2013-03-08 07:44:00,40.0,0.0,29.73,South,171,9.0,14.0,64,-99.99,,,-99.99,,2013-03-08 15:44:00,
2013-03-08 07:52:00,40.0,0.0,29.73,SSE,166,9.0,13.0,64,-99.99,,,-99.99,,2013-03-08 15:52:00,
2013-03-08 08:00:00,40.0,0.0,29.73,South,174,13.0,14.0,64,-99.99,,,-99.99,,2013-03-08 16:00:00,
2013-03-08 08:08:00,40.0,0.0,29.74,South,186,9.0,15.0,64,-99.99,,,-99.99,,2013-03-08 16:08:00,
2013-03-08 08:16:00,40.0,0.0,29.75,SSW,200,12.0,15.0,67,-99.99,,,-99.99,,2013-03-08 16:16:00,
2013-03-08 08:24:00,40.0,0.0,29.76,South,183,9.0,16.0,68,-99.99,,,-99.99,,2013-03-08 16:24:00,
2013-03-08 08:32:00,40.0,0.0,29.76,SSW,195,9.0,14.0,74,-99.99,,,-99.99,,2013-03-08 16:32:00,
2013-03-08 08:40:00,40.0,0.0,29.76,SW,215,9.0,13.0,78,-99.99,,,-99.99,,2013-03-08 16:40:00,
2013-03-08 08:48:00,40.0,0.0,29.77,SSW,204,9.0,15.0,82,-99.99,,,-99.99,,2013-03-08 16:48:00,
2013-03-08 08:56:00,40.0,0.0,29.77,SSW,192,12.0,15.0,85,-99.99,,,-99.99,,2013-03-08 16:56:00,
2013-03-08 09:04:00,39.0,0.0,29.78,SSW,207,16.0,16.0,88,-99.99,,,-99.99,,2013-03-08 17:04:00,
2013-03-08 09:12:00,39.0,0.0,29.78,SW,217,12.0,16.0,90,-99.99,,,-99.99,,2013-03-08 17:12:00,
2013-03-08 09:20:00,39.0,0.0,29.79,SSW,212,13.0,15.0,90,-99.99,,,-99.99,,2013-03-08 17:20:00,
2013-03-08 09:28:00,39.0,0.0,29.79,SW,214,12.0,14.0,90,-99.99,,,-99.99,,2013-03-08 17:28:00,
2013-03-08 09:36:00,39.0,0.0,29.79,South,190,12.0,16.0,90,-99.99,,,-99.99,,2013-03-08 17:36:00,
2013-03-08 09:44:00,39.0,0.0,29.79,SSW,206,10.0,14.0,91,-99.99,,,-99.99,,2013-03-08 17:44:00,
2013-03-08 09:52:00,39.0,0.0,29.79,South,190,13.0,14.0,90,-99.99,,,-99.99,,2013-03-08 17:52:00,
2013-03-08 10:00:00,39.0,0.0,29.80,SSW,210,13.0,16.0,90,-99.99,,,-99.99,,2013-03-08 18:00:00,
2013-03-08 10:08:00,38.0,0.0,29.79,SSW,193,8.0,14.0,90,-99.99,,,-99.99,,2013-03-08 18:08:00,
2013-03-08 10:16:00,38.0,0.0,29.79,South,190,7.0,10.0,90,-99.99,,,-99.99,,2013-03-08 18:16:00,
2013-03-08 10:24:00,38.0,0.0,29.79,SSW,198,7.0,10.0,91,-99.99,,,-99.99,,2013-03-08 18:24:00,
2013-03-08 10:32:00,38.0,0.0,29.79,SSW,211,8.0,9.0,88,-99.99,,,-99.99,,2013-03-08 18:32:00,
2013-03-08 10:40:00,38.0,0.0,29.79,SSW,197,6.0,8.0,88,-99.99,,,-99.99,,2013-03-08 18:40:00,
2013-03-08 10:48:00,39.0,0.0,29.79,South,169,2.0,6.0,89,-99.99,,,-99.99,,2013-03-08 18:48:00,
2013-03-08 10:56:00,39.0,0.0,29.79,SSE,148,2.0,6.0,91,-99.99,,,-99.99,,2013-03-08 18:56:00,
2013-03-08 11:04:00,40.0,0.0,29.79,SE,138,5.0,7.0,89,-99.99,,,-99.99,,2013-03-08 19:04:00,
2013-03-08 11:12:00,40.0,0.0,29.79,ESE,110,5.0,6.0,88,-99.99,,,-99.99,,2013-03-08 19:12:00,
2013-03-08 11:20:00,39.0,0.0,29.80,SE,143,5.0,7.0,88,-99.99,,,-99.99,,2013-03-08 19:20:00,
2013-03-08 11:28:00,39.0,0.0,29.79,SE,138,5.0,8.0,88,-99.99,,,-99.99,,2013-03-08 19:28:00,
2013-03-08 11:36:00,40.0,0.0,29.79,SSE,150,5.0,7.0,89,-99.99,,,-99.99,,2013-03-08 19:36:00,
2013-03-08 11:44:00,39.0,0.0,29.79,SE,138,6.0,8.0,88,-99.99,,,-99.99,,2013-03-08 19:44:00,
2013-03-08 11:52:00,39.0,0.0,29.79,SE,134,7.0,7.0,89,-99.99,,,-99.99,,2013-03-08 19:52:00,
2013-03-08 12:00:00,39.0,0.0,29.79,ESE,123,3.0,7.0,88,-99.99,,,-99.99,,2013-03-08 20:00:00,
2013-03-08 12:08:00,39.0,0.0,29.79,ESE,121,3.0,7.0,90,-99.99,,,-99.99,,2013-03-08 20:08:00,
2013-03-08 12:16:00,39.0,0.0,29.79,SE,142,6.0,7.0,90,-99.99,,,-99.99,,2013-03-08 20:16:00,
2013-03-08 12:24:00,39.0,0.0,29.79,SE,137,5.0,6.0,91,-99.99,,,-99.99,,2013-03-08 20:24:00,
2013-03-08 12:32:00,39.0,0.0,29.79,South,173,5.0,6.0,93,-99.99,,,-99.99,,2013-03-08 20:32:00,
2013-03-08 12:40:00,39.0,0.0,29.79,SSE,148,3.0,7.0,88,-99.99,,,-99.99,,2013-03-08 20:40:00,
2013-03-08 12:48:00,39.0,0.0,29.79,SSE,151,3.0,7.0,90,-99.99,,,-99.99,,2013-03-08 20:48:00,
2013-03-08 12:56:00,39.0,0.0,29.78,SSE,147,6.0,9.0,88,-99.99,,,-99.99,,2013-03-08 20:56:00,
2013-03-08 13:04:00,39.0,0.0,29.78,SSE,163,7.0,9.0,86,-99.99,,,-99.99,,2013-03-08 21:04:00,
2013-03-08 13:12:00,39.0,0.0,29.78,SSE,165,7.0,8.0,86,-99.99,,,-99.99,,2013-03-08 21:12:00,
2013-03-08 13:20:00,40.0,0.0,29.78,South,174,3.0,6.0,88,-99.99,,,-99.99,,2013-03-08 21:20:00,
2013-03-08 13:28:00,40.0,0.0,29.77,SSE,150,3.0,5.0,85,-99.99,,,-99.99,,2013-03-08 21:28:00,
2013-03-08 13:36:00,41.0,0.0,29.77,ESE,105,0.0,2.0,81,-99.99,,,-99.99,,2013-03-08 21:36:00,
2013-03-08 13:44:00,42.0,0.0,29.77,ENE,61,2.0,6.0,78,-99.99,,,-99.99,,2013-03-08 21:44:00,
2013-03-08 13:52:00,42.0,0.0,29.77,East,99,5.0,6.0,77,-99.99,,,-99.99,,2013-03-08 21:52:00,
2013-03-08 14:00:00,43.0,0.0,29.77,SE,134,6.0,6.0,77,-99.99,,,-99.99,,2013-03-08 22:00:00,
2013-03-08 14:08:00,42.0,0.0,29.77,ENE,74,5.0,5.0,77,-99.99,,,-99.99,,2013-03-08 22:08:00,
2013-03-08 14:16:00,42.0,0.0,29.77,East,93,3.0,8.0,79,-99.99,,,-99.99,,2013-03-08 22:16:00,
2013-03-08 14:24:00,42.0,0.0,29.77,ENE,75,6.0,8.0,79,-99.99,,,-99.99,,2013-03-08 22:24:00,
2013-03-08 14:32:00,43.0,0.0,29.77,NE,41,3.0,7.0,76,-99.99,,,-99.99,,2013-03-08 22:32:00,
2013-03-08 14:40:00,43.0,0.0,29.77,NE,50,5.0,7.0,74,-99.99,,,-99.99,,2013-03-08 22:40:00,
2013-03-08 14:48:00,43.0,0.0,29.77,ENE,62,6.0,6.0,75,-99.99,,,-99.99,,2013-03-08 22:48:00,
2013-03-08 14:56:00,44.0,0.0,29.77,NE,48,5.0,7.0,72,-99.99,,,-99.99,,2013-03-08 22:56:00,
2013-03-08 15:04:00,44.0,0.0,29.76,ENE,74,3.0,7.0,71,-99.99,,,-99.99,,2013-03-08 23:04:00,
2013-03-08 15:12:00,44.0,0.0,29.76,ENE,74,3.0,6.0,70,-99.99,,,-99.99,,2013-03-08 23:12:00,
2013-03-08 15:20:00,44.0,0.0,29.76,NE,40,3.0,6.0,72,-99.99,,,-99.99,,2013-03-08 23:20:00,
2013-03-08 15:28:00,44.0,0.0,29.76,NE,35,3.0,5.0,70,-99.99,,,-99.99,,2013-03-08 23:28:00,
2013-03-08 15:36:00,45.0,0.0,29.76,East,86,0.0,6.0,67,-99.99,,,-99.99,,2013-03-08 23:36:00,
2013-03-08 15:44:00,46.0,0.0,29.76,ENE,67,5.0,6.0,66,-99.99,,,-99.99,,2013-03-08 23:44:00,
2013-03-08 15:52:00,48.0,0.0,29.76,ESE,123,0.0,2.0,63,-99.99,,,-99.99,,2013-03-08 23:52:00,
2013-03-08 16:00:00,48.0,0.0,29.76,NE,56,3.0,5.0,61,-99.99,,,-99.99,,2013-03-09 00:00:00,
2013-03-08 16:08:00,47.0,0.0,29.76,ENE,65,0.0,2.0,60,-99.99,,,-99.99,,2013-03-09 00:08:00,
2013-03-08 16:16:00,47.0,0.0,29.76,East,84,1.0,3.0,62,-99.99,,,-99.99,,2013-03-09 00:16:00,
2013-03-08 16:24:00,48.0,0.0,29.76,East,90,2.0,6.0,59,-99.99,,,-99.99,,2013-03-09 00:24:00,
2013-03-08 16:32:00,48.0,0.0,29.76,ESE,104,2.0,5.0,61,-99.99,,,-99.99,,2013-03-09 00:32:00,
2013-03-08 16:40:00,46.0,0.0,29.76,NE,47,1.0,3.0,62,-99.99,,,-99.99,,2013-03-09 00:40:00,
2013-03-08 16:48:00,45.0,0.0,29.76,ENE,63,2.0,2.0,66,-99.99,,,-99.99,,2013-03-09 00:48:00,
2013-03-08 16:56:00,46.0,0.0,29.76,SSE,148,5.0,5.0,66,-99.99,,,-99.99,,2013-03-09 00:56:00,
2013-03-08 17:04:00,45.0,0.0,29.76,ESE,119,3.0,5.0,69,-99.99,,,-99.99,,2013-03-09 01:04:00,
2013-03-08 17:12:00,45.0,0.0,29.76,SE,133,2.0,3.0,68,-99.99,,,-99.99,,2013-03-09 01:12:00,
2013-03-08 17:20:00,46.0,0.0,29.77,SSE,158,2.0,3.0,66,-99.99,,,-99.99,,2013-03-09 01:20:00,
2013-03-08 17:28:00,45.0,0.0,29.77,SSE,157,5.0,5.0,68,-99.99,,,-99.99,,2013-03-09 01:28:00,
2013-03-08 17:36:00,46.0,0.0,29.77,South,174,5.0,6.0,66,-99.99,,,-99.99,,2013-03-09 01:36:00,
2013-03-08 17:44:00,44.0,0.0,29.77,South,181,6.0,6.0,69,-99.99,,,-99.99,,2013-03-09 01:44:00,
2013-03-08 17:52:00,42.0,0.0,29.77,SSE,160,3.0,5.0,74,-99.99,,,-99.99,,2013-03-09 01:52:00,
2013-03-08 18:00:00,42.0,0.0,29.78,SSE,165,5.0,5.0,73,-99.99,,,-99.99,,2013-03-09 02:00:00,
2013-03-08 18:08:00,42.0,0.0,29.78,South,176,6.0,7.0,74,-99.99,,,-99.99,,2013-03-09 02:08:00,
2013-03-08 18:16:00,41.0,0.0,29.79,South,181,6.0,7.0,78,-99.99,,,-99.99,,2013-03-09 02:16:00,
2013-03-08 18:24:00,41.0,0.0,29.79,South,188,6.0,6.0,78,-99.99,,,-99.99,,2013-03-09 02:24:00,
2013-03-08 18:32:00,40.0,0.0,29.79,South,177,5.0,5.0,80,-99.99,,,-99.99,,2013-03-09 02:32:00,
2013-03-08 18:40:00,40.0,0.0,29.80,South,177,5.0,5.0,80,-99.99,,,-99.99,,2013-03-09 02:40:00,
2013-03-08 18:48:00,40.0,0.0,29.80,South,189,5.0,5.0,81,-99.99,,,-99.99,,2013-03-09 02:48:00,
2013-03-08 18:56:00,40.0,0.0,29.80,South,186,5.0,6.0,81,-99.99,,,-99.99,,2013-03-09 02:56:00,
2013-03-08 19:04:00,39.0,0.0,29.81,WSW,239,5.0,5.0,82,-99.99,,,-99.99,,2013-03-09 03:04:00,
2013-03-08 19:12:00,39.0,0.0,29.81,SW,236,3.0,5.0,83,-99.99,,,-99.99,,2013-03-09 03:12:00,
2013-03-08 19:20:00,40.0,0.0,29.82,WSW,237,3.0,3.0,82,-99.99,,,-99.99,,2013-03-09 03:20:00,
2013-03-08 19:28:00,40.0,0.0,29.82,WSW,237,5.0,5.0,83,-99.99,,,-99.99,,2013-03-09 03:28:00,
2013-03-08 19:36:00,39.0,0.0,29.83,SSW,205,5.0,5.0,83,-99.99,,,-99.99,,2013-03-09 03:36:00,
2013-03-08 19:44:00,39.0,0.0,29.83,SW,217,3.0,3.0,86,-99.99,,,-99.99,,2013-03-09 03:44:00,
2013-03-08 19:52:00,40.0,0.0,29.83,SSW,211,2.0,3.0,85,-99.99,,,-99.99,,2013-03-09 03:52:00,
2013-03-08 20:00:00,40.0,0.0,29.84,SW,221,0.0,0.0,86,-99.99,,,-99.99,,2013-03-09 04:00:00,
2013-03-08 20:08:00,40.0,0.0,29.84,WSW,255,0.0,0.0,85,-99.99,,,-99.99,,2013-03-09 04:08:00,
2013-03-08 20:16:00,40.0,0.0,29.84,WSW,240,0.0,0.0,85,-99.99,,,-99.99,,2013-03-09 04:16:00,
2013-03-08 20:24:00,40.0,0.0,29.85,WSW,250,0.0,0.0,86,-99.99,,,-99.99,,2013-03-09 04:24:00,
2013-03-08 20:32:00,40.0,0.0,29.85,WNW,302,0.0,0.0,85,-99.99,,,-99.99,,2013-03-09 04:32:00,
2013-03-08 20:40:00,40.0,0.0,29.86,NW,325,0.0,0.0,85,-99.99,,,-99.99,,2013-03-09 04:40:00,
2013-03-08 20:48:00,40.0,0.0,29.86,NE,34,0.0,0.0,85,-99.99,,,-99.99,,2013-03-09 04:48:00,
2013-03-08 20:56:00,40.0,0.0,29.86,North,0,0.0,0.0,84,-99.99,,,-99.99,,2013-03-09 04:56:00,
2013-03-08 21:00:00,40.0,0.0,29.86,North,0,0.0,0.0,86,-99.99,,,-99.99,,2013-03-09 05:00:00,
2013-03-08 21:08:00,40.0,0.0,29.86,North,0,0.0,0.0,83,-99.99,,,-99.99,,2013-03-09 05:08:00,
2013-03-08 21:12:00,40.0,0.0,29.86,North,1,0.0,0.0,84,-99.99,,,-99.99,,2013-03-09 05:12:00,
2013-03-08 21:20:00,40.0,0.0,29.87,North,361,0.0,0.0,84,-99.99,,,-99.99,,2013-03-09 05:20:00,
2013-03-08 21:28:00,40.0,0.0,29.87,North,361,0.0,0.0,83,-99.99,,,-99.99,,2013-03-09 05:28:00,
2013-03-08 21:36:00,40.0,0.0,29.87,North,361,0.0,0.0,82,-99.99,,,-99.99,,2013-03-09 05:36:00,
2013-03-08 21:44:00,40.0,0.0,29.87,North,361,0.0,0.0,83,-99.99,,,-99.99,,2013-03-09 05:44:00,
2013-03-08 21:52:00,40.0,0.0,29.88,North,361,0.0,0.0,84,-99.99,,,-99.99,,2013-03-09 05:52:00,
2013-03-08 22:00:00,41.0,0.0,29.88,SE,142,0.0,0.0,81,-99.99,,,-99.99,,2013-03-09 06:00:00,
2013-03-08 22:08:00,41.0,0.0,29.88,SE,139,0.0,2.0,79,-99.99,,,-99.99,,2013-03-09 06:08:00,
2013-03-08 22:16:00,41.0,0.0,29.88,SSE,156,0.0,0.0,78,-99.99,,,-99.99,,2013-03-09 06:16:00,
2013-03-08 22:24:00,41.0,0.0,29.88,SSE,163,3.0,3.0,79,-99.99,,,-99.99,,2013-03-09 06:24:00,
2013-03-08 22:32:00,41.0,0.0,29.88,SSE,162,2.0,3.0,80,-99.99,,,-99.99,,2013-03-09 06:32:00,
2013-03-08 22:40:00,40.0,0.0,29.89,SSW,195,3.0,5.0,82,-99.99,,,-99.99,,2013-03-09 06:40:00,
2013-03-08 22:48:00,40.0,0.0,29.88,SSW,200,2.0,3.0,83,-99.99,,,-99.99,,2013-03-09 06:48:00,
2013-03-08 22:56:00,40.0,0.0,29.89,South,189,2.0,3.0,82,-99.99,,,-99.99,,2013-03-09 06:56:00,
2013-03-08 23:04:00,40.0,0.0,29.88,South,185,3.0,3.0,82,-99.99,,,-99.99,,2013-03-09 07:04:00,
2013-03-08 23:12:00,40.0,0.0,29.88,South,190,3.0,3.0,84,-99.99,,,-99.99,,2013-03-09 07:12:00,
2013-03-08 23:20:00,40.0,0.0,29.89,SW,215,2.0,3.0,84,-99.99,,,-99.99,,2013-03-09 07:20:00,
2013-03-08 23:28:00,40.0,0.0,29.89,SW,215,2.0,3.0,85,-99.99,,,-99.99,,2013-03-09 07:28:00,
2013-03-08 23:36:00,39.0,0.0,29.89,SW,224,3.0,3.0,88,-99.99,,,-99.99,,2013-03-09 07:36:00,
2013-03-08 23:44:00,40.0,0.0,29.89,SW,222,0.0,2.0,84,-99.99,,,-99.99,,2013-03-09 07:44:00,
2013-03-08 23:52:00,40.0,0.0,29.89,South,180,1.0,2.0,85,-99.99,,,-99.99,,2013-03-09 07:52:00,